Flag for Switzerland Weather past 2 weeks in Martigny, Valais, Switzerland

Now
67 °F

Mild.


Feels Like: 67 °F
Forecast: 59 / 76 °F
Wind: 3 mph from Northeast

Location: Sion

Current Time: Jul 29, 2015 at 9:50:31 AM

Latest Report: Jul 29, 2015 at 9:00 AM


Visibility: N/A

Pressure: 29.82 "Hg

Humidity: 56%

Dew point: 51 °F

Location of MartignyLocation

Historic Weather in Martigny — Graph

°F

Martigny temperature yesterday

Maximum temperature yesterday: 78 °F (at 5:00 PM)
Minimum temperature yesterday: 56 °F (at 6:00 AM)
Average temperature yesterday: 68 °F

Past Weeks' High & Low Weather Summary

 TemperatureHumidityPressure
High96 °F (Jul 16, 6:00 PM)97% (Jul 25, 4:00 AM)30.18 "Hg (Jul 25, 4:00 AM)
Low54 °F (Jul 26, 6:00 AM)19% (Jul 16, 9:00 PM)29.61 "Hg (Jul 24, 5:00 PM)
Average75 °F57%29.93 "Hg
* Reported Jul 14 8:00 AM — Jul 29 8:00 AM, Martigny, Weather by CustomWeather, © 2015

Note: Actual official high and low records may vary slightly from our data, if they occured in-between our weather recording intervals... More about our weather records

Advertising

Martigny weather history for previous 24 hours

 ConditionsComfort  
Time TempWeatherWind HumidityBarometerVisibility
8:00 AM
Wed, Jul 29
65 °FOvercast.No wind70%29.84 "Hg12 mi
7:00 AM64 °FMild.2 mph69%29.85 "HgN/A
6:00 AM66 °FMild.2 mph55%29.84 "HgN/A
5:00 AM65 °FOvercast.5 mph58%29.84 "Hg12 mi
4:00 AM66 °FMild.5 mph56%29.84 "HgN/A
3:00 AM68 °FMild.6 mph49%29.83 "HgN/A
2:00 AM67 °FOvercast.2 mph52%29.84 "Hg12 mi
1:00 AM69 °FMild.15 mph46%29.84 "HgN/A
12:00 AM70 °FMild.17 mph45%29.82 "HgN/A
10:00 PM
Tue, Jul 28
71 °FMild.20 mph43%29.77 "HgN/A
9:00 PM71 °FMild.20 mph43%29.76 "HgN/A
8:00 PM72 °FMild.20 mph42%29.74 "HgN/A
7:00 PM74 °FMild.21 mph41%29.72 "HgN/A
6:00 PM76 °FMild.21 mph40%29.71 "HgN/A
5:00 PM78 °FScattered clouds.18 mph38%29.70 "Hg19 mi
4:00 PM78 °FPleasantly warm.20 mph38%29.71 "HgN/A
3:00 PM76 °FMild.20 mph40%29.73 "HgN/A
2:00 PM76 °FScattered clouds.18 mph42%29.76 "Hg19 mi
1:00 PM76 °FMild.15 mph41%29.78 "HgN/A
12:00 PM73 °FMild.12 mph43%29.82 "HgN/A
11:00 AM71 °FPartly sunny.5 mph48%29.85 "Hg12 mi
10:00 AM68 °FMild.6 mph56%29.88 "HgN/A
Weather by CustomWeather, © 2015

See weather overviewHow to use our weather pages